Date String (YYYY-MM-DD hh:mm:ss) UTC,Instrument flags,absolute air pressure of the measurement (hPa),sample flow rate (lpm),inlet stack bypass flow (lpm),air temperature of the measurement (°C),ambient temperature measured by the external sensor (°C),aerosol sample conditioner tube jacket temperature (°C),OPC LED temperature (°C),internal box temperature (°C),relative humidity of the measurement (%),span deviation,mass concentration of particles derived from Lorenz-Mie calculation of OPC scattering (μg/m³),mass concentration of particles derived from Lorenz-Mie calculation of OPC scattering (μg/m³),mass concentration of particles derived from Lorenz-Mie calculation of OPC scattering (μg/m³)
DateTimeUTC,F1_M11,P_M11,Q1_M11,Q2_M11,T1_M11,T2_M11,T3_M11,T4_M11,T5_M11,U1_M11,ZSPAN_M11,X2_M11,X0_M11,X1_M11
2023-12-06 23:00:00,SystemResetWarning,0829.0,5.00,000.00,025.5,024.3,000.0,033.5,027.1,13.5,0000.0,0004.85,0015.12,0003.91
2023-12-06 23:01:00,SystemResetWarning,0829.0,5.00,000.00,025.6,024.5,000.0,033.5,027.2,13.5,0000.0,0004.87,0015.16,0003.91
2023-12-06 23:02:00,SystemResetWarning,0829.0,5.00,000.00,025.6,024.7,000.0,033.6,027.2,13.3,0000.0,0004.86,0015.37,0003.90
2023-12-06 23:03:00,SystemResetWarning,0829.0,5.00,000.00,025.7,024.8,000.0,033.6,027.3,13.2,0000.0,0004.89,0015.36,0003.92
2023-12-06 23:04:00,SystemResetWarning,0829.0,5.00,000.00,025.7,024.7,000.0,033.6,027.4,13.1,0000.0,0004.89,0015.63,0003.92
2023-12-06 23:05:00,SystemResetWarning,0828.9,5.00,000.00,025.7,023.1,000.0,033.6,027.2,13.1,0000.0,0004.90,0016.27,0003.92
2023-12-06 23:06:00,SystemResetWarning,0828.9,5.01,000.00,025.6,021.6,000.0,033.6,026.8,13.3,0000.0,0004.94,0014.48,0003.95
2023-12-06 23:07:00,SystemResetWarning,0828.8,5.02,000.00,025.4,021.7,000.0,033.5,026.6,13.6,0000.0,0004.96,0014.14,0003.98
2023-12-06 23:08:00,SystemResetWarning,0828.8,5.00,000.00,025.3,022.1,000.0,033.5,026.3,13.8,0000.0,0004.98,0014.36,0004.01
2023-12-06 23:09:00,SystemResetWarning,0828.8,5.00,000.00,025.3,022.5,000.0,033.5,026.4,14.7,0000.0,0005.00,0014.59,0004.03
2023-12-06 23:10:00,SystemResetWarning,0828.8,5.00,000.00,025.3,023.0,000.0,033.5,026.5,15.7,0000.0,0005.04,0015.19,0004.06
2023-12-06 23:11:00,SystemResetWarning,0828.8,5.00,000.00,025.3,023.4,000.0,033.4,026.7,15.8,0000.0,0005.08,0014.65,0004.10
2023-12-06 23:12:00,SystemResetWarning,0828.8,5.01,000.00,025.3,023.7,000.0,033.5,026.8,16.1,0000.0,0005.13,0014.59,0004.14
2023-12-06 23:13:00,SystemResetWarning,0828.8,5.00,000.00,025.4,024.0,000.0,033.5,026.9,16.4,0000.0,0005.18,0015.15,0004.19
2023-12-06 23:14:00,SystemResetWarning,0828.8,4.99,000.00,025.4,024.2,000.0,033.5,027.0,16.4,0000.0,0005.22,0014.75,0004.23
2023-12-06 23:15:00,SystemResetWarning,0828.9,4.99,000.00,025.5,024.4,000.0,033.5,027.1,16.3,0000.0,0005.31,0014.70,0004.27
2023-12-06 23:16:00,SystemResetWarning,0829.0,5.00,000.00,025.5,024.6,000.0,033.5,027.2,16.2,0000.0,0005.41,0013.95,0004.32
2023-12-06 23:17:00,SystemResetWarning,0828.9,5.00,000.00,025.6,024.7,000.0,033.6,027.3,16.0,0000.0,0005.76,0035.36,0004.36
2023-12-06 23:18:00,SystemResetWarning,0828.9,4.99,000.00,025.6,023.6,000.0,033.6,027.2,16.0,0000.0,0006.10,0052.76,0004.41
2023-12-06 23:19:00,SystemResetWarning,0828.8,5.00,000.00,025.5,021.7,000.0,033.5,026.8,16.1,0000.0,0006.18,0052.78,0004.46
2023-12-06 23:20:00,SystemResetWarning,0828.8,5.01,000.00,025.4,021.4,000.0,033.5,026.6,16.3,0000.0,0006.25,0053.03,0004.53
2023-12-06 23:21:00,SystemResetWarning,0828.8,5.01,000.00,025.3,021.8,000.0,033.4,026.2,16.6,0000.0,0006.31,0053.85,0004.59
2023-12-06 23:22:00,SystemResetWarning,0828.8,4.99,000.00,025.2,022.2,000.0,033.4,026.2,16.8,0000.0,0006.31,0053.54,0004.65
2023-12-06 23:23:00,SystemResetWarning,0828.8,4.99,000.00,025.1,022.7,000.0,033.4,026.4,16.9,0000.0,0006.36,0053.81,0004.70
2023-12-06 23:24:00,SystemResetWarning,0828.8,5.01,000.00,025.2,023.1,000.0,033.4,026.6,16.8,0000.0,0006.39,0053.27,0004.76
2023-12-06 23:25:00,SystemResetWarning,0828.8,5.01,000.00,025.2,023.4,000.0,033.4,026.7,16.8,0000.0,0006.38,0052.85,0004.81
2023-12-06 23:26:00,SystemResetWarning,0828.9,5.00,000.00,025.3,023.7,000.0,033.4,026.8,16.8,0000.0,0006.35,0052.43,0004.86
2023-12-06 23:27:00,SystemResetWarning,0829.0,4.99,000.00,025.3,024.0,000.0,033.4,026.9,16.7,0000.0,0006.34,0052.36,0004.92
2023-12-06 23:28:00,SystemResetWarning,0829.0,5.00,000.00,025.4,024.2,000.0,033.4,027.0,16.6,0000.0,0006.24,0046.50,0004.95
2023-12-06 23:29:00,SystemResetWarning,0828.9,5.00,000.00,025.4,024.4,000.0,033.4,027.1,16.5,0000.0,0005.75,0013.42,0004.98
2023-12-06 23:30:00,SystemResetWarning,0828.9,5.00,000.00,025.5,024.6,000.0,033.5,027.2,16.5,0000.0,0005.72,0013.12,0005.00
2023-12-06 23:31:00,SystemResetWarning,0829.0,5.00,000.00,025.6,024.7,000.0,033.5,027.2,16.5,0000.0,0005.71,0013.49,0005.02
2023-12-06 23:32:00,SystemResetWarning,0828.9,4.99,000.00,025.6,024.2,000.0,033.5,027.3,16.5,0000.0,0005.70,0012.86,0005.04
2023-12-06 23:33:00,SystemResetWarning,0829.0,5.00,000.00,025.5,022.5,000.0,033.5,027.0,16.5,0000.0,0005.67,0012.55,0005.05
2023-12-06 23:34:00,SystemResetWarning,0829.0,5.02,000.00,025.4,022.1,000.0,033.5,026.8,16.6,0000.0,0005.67,0012.06,0005.06
2023-12-06 23:35:00,SystemResetWarning,0829.0,5.01,000.00,025.3,022.4,000.0,033.5,026.5,16.7,0000.0,0005.68,0012.24,0005.06
2023-12-06 23:36:00,SystemResetWarning,0829.0,4.99,000.00,025.3,022.7,000.0,033.4,026.4,16.9,0000.0,0005.68,0012.31,0005.06
2023-12-06 23:37:00,SystemResetWarning,0829.0,5.00,000.00,025.3,023.1,000.0,033.4,026.6,16.9,0000.0,0005.68,0012.01,0005.07
2023-12-06 23:38:00,SystemResetWarning,0829.1,5.00,000.00,025.3,023.4,000.0,033.4,026.7,16.9,0000.0,0005.69,0011.28,0005.08
2023-12-06 23:39:00,SystemResetWarning,0829.1,5.00,000.00,025.3,023.7,000.0,033.4,026.8,16.9,0000.0,0005.71,0011.14,0005.10
2023-12-06 23:40:00,SystemResetWarning,0829.1,5.00,000.00,025.3,023.9,000.0,033.4,026.9,16.8,0000.0,0005.73,0011.42,0005.12
2023-12-06 23:41:00,SystemResetWarning,0829.0,5.00,000.00,025.4,024.1,000.0,033.4,026.9,16.8,0000.0,0005.78,0011.67,0005.15
2023-12-06 23:42:00,SystemResetWarning,0828.9,5.00,000.00,025.4,024.3,000.0,033.5,027.0,16.8,0000.0,0005.80,0011.41,0005.19
2023-12-06 23:43:00,SystemResetWarning,0828.9,5.00,000.00,025.5,024.4,000.0,033.5,027.1,16.7,0000.0,0005.85,0011.19,0005.24
2023-12-06 23:44:00,SystemResetWarning,0828.9,5.00,000.00,025.5,024.6,000.0,033.5,027.2,16.7,0000.0,0005.92,0011.90,0005.29
2023-12-06 23:45:00,SystemResetWarning,0828.9,5.00,000.00,025.6,024.7,000.0,033.5,027.2,16.6,0000.0,0005.92,0012.21,0005.33
2023-12-06 23:46:00,SystemResetWarning,0828.9,5.00,000.00,025.6,024.8,000.0,033.6,027.3,16.6,0000.0,0005.97,0012.32,0005.38
2023-12-06 23:47:00,SystemResetWarning,0829.0,5.00,000.00,025.7,024.9,000.0,033.6,027.3,16.6,0000.0,0006.09,0012.47,0005.45
2023-12-06 23:48:00,SystemResetWarning,0828.9,5.00,000.00,025.7,025.0,000.0,033.6,027.4,16.5,0000.0,0006.18,0012.57,0005.50
2023-12-06 23:49:00,SystemResetWarning,0829.0,5.00,000.00,025.7,025.0,000.0,033.7,027.4,16.4,0000.0,0006.19,0012.55,0005.54
2023-12-06 23:50:00,SystemResetWarning,0828.9,5.00,000.00,025.8,025.1,000.0,033.7,027.5,16.4,0000.0,0006.25,0012.70,0005.57
2023-12-06 23:51:00,SystemResetWarning,0829.0,4.98,000.00,025.8,023.9,000.0,033.7,027.4,16.4,0000.0,0006.30,0012.75,0005.61
2023-12-06 23:52:00,SystemResetWarning,0829.0,5.00,000.00,025.7,022.4,000.0,033.7,027.1,16.4,0000.0,0006.34,0012.71,0005.65
2023-12-06 23:53:00,SystemResetWarning,0828.9,5.01,000.00,025.6,022.2,000.0,033.7,026.8,16.5,0000.0,0006.36,0012.21,0005.67
2023-12-06 23:54:00,SystemResetWarning,0828.9,5.00,000.00,025.5,022.5,000.0,033.6,026.5,16.6,0000.0,0006.37,0012.26,0005.68
2023-12-06 23:55:00,SystemResetWarning,0828.9,5.00,000.00,025.4,022.9,000.0,033.6,026.5,16.7,0000.0,0006.41,0011.67,0005.71
2023-12-06 23:56:00,SystemResetWarning,0829.0,5.00,000.00,025.4,023.2,000.0,033.6,026.7,16.8,0000.0,0006.46,0011.52,0005.75
2023-12-06 23:57:00,SystemResetWarning,0829.0,4.99,000.00,025.4,023.5,000.0,033.6,026.7,16.3,0000.0,0006.49,0011.45,0005.78
2023-12-06 23:58:00,SystemResetWarning,0829.0,5.00,000.00,025.4,023.8,000.0,033.6,026.8,16.3,0000.0,0006.49,0011.72,0005.79
2023-12-06 23:59:00,SystemResetWarning,0829.0,5.00,000.00,025.4,024.0,000.0,033.6,026.9,16.4,0000.0,0006.46,0011.86,0005.79
